(509216) = 2006 SR224

Discovered at Mount Lemmon on 2006-09-26 by Mt. Lemmon Survey.

Orbit

Orbit type: Main Belt

Note: WebGL enabled browser required.

epoch2023-09-13.0
epoch JD2460200.5
perihelion date2023-07-04.01378
perihelion JD2460129.51378
argument of perihelion (°)171.63855
ascending node (°)156.12506
inclination (°)8.40897
eccentricity0.2119820
perihelion distance (AU)1.7691981
Tisserand w.r.t. Jupiter3.6
ΔV w.r.t. Earth (km/sec)8.6
semimajor axis (AU)2.2451238
mean anomaly (°)20.79780
mean daily motion (°/day)0.29298370
aphelion distance (AU)2.721
period (years)3.36
P-vector [x]0.84648729
P-vector [y]-0.49654478
P-vector [z]-0.19210036
Q-vector [x]0.52910866
Q-vector [y]0.82468461
Q-vector [z]0.19984826
absolute magnitude18.27
phase slope0.15
uncertainty0
referenceMPEC 2023-Y111
observations used121
oppositions7
arc length (days)6371
first opposition used2006
last opposition used2023
residual rms (arc-secs)0.66
perturbers coarse indicatorM-v
perturbers precise indicator003Ek
first observation date used2006-07-21.0
last observation date used2023-12-30.0
computer nameMPCLINUX
JD of orbit computation2458131.217279
perihelion JD uncertainty (days)1.3365E-04
argument of perihelion uncertainty (°)3.7341E-05
ascending node uncertainty (°)2.8724E-05
inclination uncertainty (°)4.3041E-06
eccentricity uncertainty 1.1345E-07
perihelion distance uncertainty (AU)2.2917E-07
Minimum Orbit Intersection Distances (in AU)
for orbit epoch: 2460200.5, reference: E2023-YB1
Mercury1.36308
Venus1.04469
Earth0.75791
Mars0.39366
Jupiter2.6267
Saturn6.48033
Uranus15.7413
Neptune27.6084

Observations

126 total observations over interval: 2006 07 21.30410 – 2023 12 30.247488
These data are available for download (format description).

